Regional Weather Roundup
Issued by NWS Portland, ME

Current Version | Previous Version | Text Only | Print | Product List | Glossary Off
Versions: 1 2 3 4 5 6 7 8 9 10 11 12 13 14 15 16 17 18 19 20 21 22 23 24 25 26 27 28 29 30 31 32 33 34 35 36 37 38 39 40 41 42 43 44 45 46 47 48 49 50
000 ASUS41 KGYX 200810 RWRGYX WEATHER ROUNDUP FOR MAINE AND NEW HAMPSHIRE NATIONAL WEATHER SERVICE GRAY ME 400 AM EDT SUN AUG 20 2017 MEZ002-005-006-010-012-015-018-020-021-024-026-027-029-200900- MAINE CITY SKY/WX TMP DP RH WIND PRES REMARKS PORTLAND PTCLDY 64 61 90 CALM 29.82S SANFORD CLOUDY 61 60 97 CALM 29.84S BAR HARBOR FOG 63 63 100 SW3 29.81S VSB 1/2 WISCASSET CLOUDY 65 65 100 CALM 29.83R FOG ROCKLAND FOG 64 64 100 W6 29.81R VSB 1 FRYEBURG CLOUDY 66 61 84 CALM 29.83S LEWISTONAUBURN FOG 63 63 100 CALM 29.83S VSB 1/4 AUGUSTA FOG 64 64 100 CALM 29.82S VSB 1/4 WATERVILLE FOG 64 64 100 SW3 29.80S VSB 1/4 BANGOR CLOUDY 65 64 97 S5 29.81R FOG GREENVILLE N/A 61 59 93 CALM 29.81S MILLINOCKET MOCLDY 63 63 100 CALM 29.80S HOULTON LGT RAIN 65 65 100 S3 29.77S FOG PRESQUE ISLE CLOUDY 63 63 100 S6 29.78R FRENCHVILLE FOG 61 60 97 S5 29.75F VSB 1/4 CARIBOU CLOUDY 64 62 93 S6 29.75S $$ NHZ002-005-008-009-011-012-014-200900- NEW HAMPSHIRE CITY SKY/WX TMP DP RH WIND PRES REMARKS PORTSMOUTH MOCLDY 66 64 94 W3 29.81F ROCHESTER CLOUDY 64 61 90 NW3 29.83S NASHUA CLOUDY 66 65 96 CALM 29.85R MANCHESTER CLOUDY 67 63 87 S3 29.83S CONCORD CLOUDY 63 62 97 CALM 29.84F LACONIA CLOUDY 66 63 90 CALM 29.85S PLYMOUTH MOCLDY 60 59 96 CALM 29.85S FOG BERLIN CLOUDY 59 55 87 CALM 29.86R WHITEFIELD CLOUDY 60 57 89 CALM 29.86R JAFFREY CLOUDY 65 65 100 S3 29.89S KEENE N/A N/A N/A N/A MISG N/A LEBANON CLOUDY 64 63 96 CALM 29.86R MT WASHINGTON FOG 46 46 100 W40 N/A VSB 1/16 $$ VTZ005-007-008-200900- VERMONT CITY SKY/WX TMP DP RH WIND PRES REMARKS ST JOHNSBURY N/A 62 62 100 MISG 29.84R MONTPELIER LGT RAIN 61 61 100 CALM 29.90S BURLINGTON CLOUDY 67 62 84 CALM 29.85R $$ MAZ007-012-024-CTZ003-RIZ002-NYZ038-NYZ072-200900- SOUTHERN NEW ENGLAND AND NY CITY SKY/WX TMP DP RH WIND PRES REMARKS BOSTON PTCLDY 74 64 71 W9 29.84R WORCESTER PTCLDY 67 59 75 W10 29.90R NANTUCKET CLEAR 68 68 100 SW7 29.87S FOG PROVIDENCE CLEAR 71 68 90 W7 29.86R HARTFORD PTCLDY 68 62 81 NW3 29.89R ALBANY MOCLDY 65 59 81 CALM 29.92R NEW YORK CITY CLEAR 74 64 71 NW9 29.92R $$ ANZ081-ANZ082-ANZ150-NHZ014-MEZ023>029-200900- COASTAL MARINE OBSERVATIONS STATION/POSITION TIME TEMP WIND PRES WAVE AIR SEA DIR/SP/G HT/PER (UTC) (F) (DEG/KT/KT) (MB) (FT/S) MOUNT DESERT ROC 0800 60 1009.5R MATINICUS ROCK 0700 63 220/ 10/ 10 1008.8F ISLE OF SHOALS 0700 70 250/ 9/ 9 1009.7S JEFFREYS LEDGE 0706 65 N/A 2/ 7 CASHES LEDGE BUO 0650 69 68 1009.5 3/ 7 GEORGES BANK BUO 0650 67 62 1011.3 5/ 7 $$ .............KEY.............. WCI - WIND CHILL TC - TEMPERATURE IN CELSIUS VSB - VISIBILITY IN MILES HX - HEAT INDEX FAIR- INDICATES FEW OR NO CLOUDS BELOW 12,000 FT, WITH NO SIGNIFICANT WEATHER AND/OR OBSTRUCTIONS TO VISIBILITY.

USA.gov is the U.S. government's official web portal to all federal, state and local government web resources and services.